Погода в Кольве

Индия     15°16′44″N   73°55′21″E
темп.,
°C
ветер,
м/с
пор.,
м/с
влажн.,
%
обл.,
%
осадки,
мм/ч
давл.,
гПа
погр.,
м
31 июля, сб
сб3123:30+25з5987100 7.8 1011504
02:30+25з4988100 2.3 1009393
05:30+25з51086100 7.6 1009426
08:30+26з598774 5.7 1011725
11:30+28з6107799 9.1 10121089
14:30+28з6117786 3.8 10101193
17:30+27зсз51084100 6.9 10101005
20:30+26з5986100 3.3 1011546
1 августа, вс
вс123:30+26з51084100 5.5 1011534
02:30+25з51085100 2.1 1009525
05:30+25з51085100 3.8 1009476
08:30+27з5981100 1.7 1010936
11:30+28з697399 3.5 10101118
14:30+29з6972100 1.1 10081179
17:30+27зюз5980100 3.1 1008937
20:30+26зюз598565 1.8 1009507
2 августа, пн
пн223:30+25зюз598588 3.1 1009504
02:30+25зюз51086100 1.3 1007602
05:30+25зюз598548 3.0 1007484
08:30+27зюз5981100 1.6 1009939
11:30+28зюз697215 2.9 10091114
14:30+29зюз797116 1.4 10081133
17:30+27зюз59785 3.9 1008934
20:30+25зюз598643 4.1 1010542
3 августа, вт
вт323:30+25зюз598786 10.0 1010516
02:30+25зюз598798 5.9 1009487
05:30+25зюз598872 11.5 1009415
08:30+26зюз588536 6.2 1011767
11:30+27зюз588276 10.3 1011930
14:30+27з578490 4.3 1010732
17:30+27зюз478547 8.6 1009742
20:30+25зюз489156 7.4 1011362
4 августа, ср
ср423:30+25зюз489245 15.9 1012373
02:30+25зюз489064 8.8 1010425
05:30+25зюз3792100 15.1 1010345
08:30+26з4788100 5.4 1012666
11:30+27з588398 10.4 1011882
14:30+28з5880100 5.8 1010960
17:30+26з4786100 10.1 1009700
20:30+25з3790100 6.1 1010333